Regional Weather Roundup
Issued by NWS Green Bay, WI

Home | Current Version | Previous Version | Graphics & Text | Print | Product List | Glossary Off
Versions: 1 2 3 4 5 6 7 8 9 10 11 12 13 14 15 16 17 18 19 20 21 22 23 24 25 26 27 28 29 30 31 32 33 34 35 36 37 38 39 40 41 42 43 44 45 46 47 48 49 50

000
ASUS43 KGRB 290900
RWRGRB

NORTH-CENTRAL AND NORTHEAST WISCONSIN REGIONAL WEATHER ROUNDUP
NATIONAL WEATHER SERVICE GREEN BAY WI
400 AM CDT WED JUL 29 2015

WIZ005-009-010>012-018-019-291000-
NORTH CENTRAL WISCONSIN

CITY           SKY/WX    TMP DP  RH WIND       PRES   REMARKS
IRONWOOD       PTCLDY    68  54  60 SW13G20   29.78S
MANITOWISH WTR NOT AVBL
ARBOR VITAE    NOT AVBL
EAGLE RIVER    NOT AVBL
LAND O LAKES   NOT AVBL
RHINELANDER    CLOUDY    69  57  65 W12       29.89R
PHILLIPS       NOT AVBL
ANTIGO         NOT AVBL
TOMAHAWK       NOT AVBL
MERRILL        NOT AVBL
$$

WIZ013-073-291000-
NORTHEAST WISCONSIN

CITY           SKY/WX    TMP DP  RH WIND       PRES   REMARKS
IRON MOUNTAIN  CLOUDY    70  66  87 VRB3      29.81S
MARINETTE      CLOUDY    73  66  78 SW7       29.83S
$$

WIZ017-030-035>037-045-291000-
CENTRAL WISCONSIN

CITY           SKY/WX    TMP DP  RH WIND       PRES   REMARKS
MEDFORD        NOT AVBL
WAUSAU         CLOUDY    73  56  54 W10       29.89R
MOSINEE        NOT AVBL
MARSHFIELD     CLOUDY    70  57  63 W8        29.92R
WISC RAPIDS    CLOUDY    75  58  55 NW8       29.93R
STEVENS POINT  NOT AVBL
WAUPACA        NOT AVBL
SHAWANO        NOT AVBL
CLINTONVILLE   NOT AVBL
$$

WIZ038-039-048-051-291000-
FOX VALLEY

CITY           SKY/WX    TMP DP  RH WIND       PRES   REMARKS
NWS GREEN BAY  CLOUDY    73  70  90 S5        29.86S FOG
APPLETON       NOT AVBL
OSHKOSH        CLOUDY    76  70  82 SW6       29.88S
FOND DU LAC    CLOUDY    76  72  87 SW5       29.89S
$$

WIZ022-050-052-291000-
EAST CENTRAL WISCONSIN

CITY           SKY/WX    TMP DP  RH WIND       PRES   REMARKS
STURGEON BAY   CLOUDY    72  66  83 S8        29.88R
MANITOWOC      NOT AVBL
SHEBOYGAN      CLOUDY    72  70  93 SW7       29.90R FOG
$$

LMZ563-521-522-541>543-291000-
LAKESHORE

STATION/POSITION TIME  TEMP    WIND        PRES    VSBY  WAVE
                       AIR SEA DIR/SP/G                  HT/PER
                 (UTC) (F)     (DEG/KT/KT) (MB)    (MI)  (FT/S)
SHEBOYGAN LKSHOR 0800   72     190/  7/  7 1011.8F
KEWAUNEE LKSHORE 0800   63     160/  3/  4 1010.7F
NORTHPORT PIER   0800   71     150/  5/  7 1010.2F
N MID LAKE BUOY  0750   73 71  180/ 10/ 12 1010.3F         1/ 3
S GREEN BAY BUOY 0800   75 75  180/ 10/ 14 1012.1
SISTER BAY LKSHO 0844   71     170/ 10/ 11   N/A
CHAMBERS ISLAND  0800   74     170/  3/  7 1010.2F
MENOMINEE LKSHOR 0800   75     190/  6/ 10 1011.1F
$$


USA.gov is the U.S. government's official web portal to all federal, state and local government web resources and services.